WGS F5 (USA 243) 1 39168U 13024A 21055.42635965 -.00000286 00000-0 00000+0 0 9996 2 39168 0.0116 117.7910 0000491 185.3860 312.3117 1.00272083 28380 DELTA 4 R/B 1 39169U 13024B 21053.45973055 -.00000329 00000-0 95338-3 0 9993 2 39169 25.5536 352.3077 8206968 199.9346 81.6429 1.09789955 31101